Aérodrome :
LOGIN :

S'inscrire | Disclaimer

   EN    FR    IT 

 










Légende :    VFR   VFR Marginal   IFR   IFR Intensif   IFR Très Intensif
Visi : 
Plafond : 
>= 8 km
>= 3000ft
5 à 8 km
1000 à 3000 ft
1500m à 5 km
500 à 1000 ft
800 à 1500m
200 à 500 ft
< 800m
< 200 ft
Symboles :   Orages  Brouillard  Fortes neiges  Fortes précipitations  Vent > 20 kt
SIGMETs :   Divers  Orages  Givrage  Turbulence  Onde Orograph.  Cendres Volcan.






- Altitude de l'aérodrome : 26 ft
- Code IATA : GAE


DTTG - Matmata

DERNIER METAR :
  • 031200Z 08012KT 9999 SCT030 30/12 Q1011 NOSIG

METARs EXPIRÉS :
  • 031100Z 08012KT 050V110 9999 SCT030 29/13 Q1012 NOSIG
  • 031000Z 08012KT 040V130 9999 FEW030 28/12 Q1012 NOSIG
  • 030900Z 09010KT 9999 FEW030 27/08 Q1012 NOSIG

TAF TAF DTTG
Valide du 03 à 10h jusqu'au 03 à 19h UTC


030900Z 0310/0319 09010KT 9999 FEW020



MET'MAP, la Météo Aéronautique d'un coup d'oeil ! - Copyright ORBIFLY Décembre 2007 - Disclaimer

ORBIFLY MET'MAP TEAM :

Programmation & Développement : Alexandra Zaïnal
Sur une idée originale de : Baudouin d'Aumeries
Assistance à la programmation : Marc-Olivier Méhu
Soutien technique & logistique : Manuel Goepfert

Contact : metmap@orbifly.com




SOURCES & CREDITS :

   NOAA